Warning: Javascript must be enabled to use all the features on this page!


Page Loading - Please Wait...

Click to hideNews Bulletins

Peak Streamflow for the Nation

USGS 11254000 SAN JOAQUIN R NR MENDOTA CA

Fresno County, California
Hydrologic Unit Code 18040001
Latitude  36°48'38", Longitude 120°22'38" NAD27
Drainage area 3,940  square miles
Gage datum 140.53 feet above NGVD29
Output formats
Table
Graph
Tab-separated file
peakfq (watstore) format
Reselect output format
Water
Year
Date Gage
Height
(feet)
Stream-
flow
(cfs)
1940 1940-03-02   7,8806
1941 1941-06-20   11,7006
1942 1942-06-17   10,5006
1943 1943-01-27   10,8006
1944 1944-03-08   1,4706
1945 1945-06-19   6,4406
1946 1946-05-10 8.42 4,8506
1947 1946-11-27 6.18 2,4506
1948 1948-04-30 3.73 8136
1949 1949-06-17 2.76 4276
1950 1950-06-19 2.66 4026
1951 1950-12-18 9.41 4,3906
1952 1952-06-01 13.01 8,8406
1953 1952-12-23 3.70 7436
1954 1954-02-17 6.95 1,3806
2000 2000-03-17 6.096 7806
2001 2001-07-06 5.87 6656
2002 2002-07-11 5.79 6526
2003 2003-02-20 5.85 6736
2004 2004-07-02 6.03 7076
2005 2005-06-02 10.25 2,1406
2006 2006-04-22 16.60 4,6106
2007 2006-11-24 6.07 6596
2008 2008-07-17 6.01 6936
2009 2009-07-20 6.01 6836
2010 2010-06-11 7.73 1,1306
2011 2011-04-10 14.44 3,6006
2012 2012-08-18 5.81 7226
2013 2013-07-15 5.85 6916
2014 2014-07-12 5.68 6256
2015 2015-06-29 6.25 7666
2016 2016-07-04 5.49 5736
2017 2017-02-20 15.73 4,3106
2018 2018-06-08 5.79 7456
2019 2019-06-03 11.85 2,7006
2020 2020-08-18 5.60 7326
?
  Peak Gage-Height Qualification Codes.
?
  Peak Streamflow Qualification Codes.